Time,TemperatureF,DewpointF,PressureIn,WindDirection,WindDirectionDegrees,WindSpeedMPH,WindSpeedGustMPH,Humidity,HourlyPrecipIn,Conditions,Clouds,dailyrainin,SolarRadiationWatts/m^2,SoftwareType,DateUTC
2013-01-20 00:02:00,47.0,28.0,-100.00,SW,229,9.0,17.0,47,0.00,,,0.00,0.000000,,2013-01-20 06:02:00,
2013-01-20 00:12:00,47.0,28.0,-100.00,SW,229,9.0,17.0,47,0.00,,,0.00,0.000000,,2013-01-20 06:12:00,
2013-01-20 00:33:00,46.0,28.0,-100.00,SW,233,7.0,17.0,50,0.00,,,0.00,0.000000,,2013-01-20 06:33:00,
2013-01-20 00:43:00,46.0,28.0,-100.00,SW,233,7.0,17.0,50,0.00,,,0.00,0.000000,,2013-01-20 06:43:00,
2013-01-20 00:53:00,46.0,28.0,-100.00,SW,233,7.0,17.0,50,0.00,,,0.00,0.000000,,2013-01-20 06:53:00,
2013-01-20 01:02:00,46.0,28.0,-100.00,SW,233,7.0,17.0,50,0.00,,,0.00,0.000000,,2013-01-20 07:02:00,
2013-01-20 01:12:00,46.0,28.0,-100.00,SW,233,7.0,17.0,50,0.00,,,0.00,0.000000,,2013-01-20 07:12:00,
2013-01-20 01:32:00,45.0,29.0,-100.00,WSW,242,7.0,16.0,53,0.00,,,0.00,0.000000,,2013-01-20 07:32:00,
2013-01-20 01:42:00,45.0,29.0,-100.00,WSW,242,7.0,16.0,53,0.00,,,0.00,0.000000,,2013-01-20 07:42:00,
2013-01-20 01:52:00,45.0,29.0,-100.00,WSW,242,7.0,16.0,53,0.00,,,0.00,0.000000,,2013-01-20 07:52:00,
2013-01-20 02:02:00,45.0,29.0,-100.00,WSW,242,7.0,16.0,53,0.00,,,0.00,0.000000,,2013-01-20 08:02:00,
2013-01-20 02:12:00,45.0,29.0,-100.00,WSW,242,7.0,16.0,53,0.00,,,0.00,0.000000,,2013-01-20 08:12:00,
2013-01-20 02:42:00,44.0,31.0,-100.00,SW,235,6.0,12.0,59,0.00,,,0.00,0.000000,,2013-01-20 08:42:00,
2013-01-20 02:52:00,44.0,31.0,-100.00,SW,235,6.0,12.0,59,0.00,,,0.00,0.000000,,2013-01-20 08:52:00,
2013-01-20 03:02:00,44.0,31.0,-100.00,SW,235,6.0,12.0,59,0.00,,,0.00,0.000000,,2013-01-20 09:02:00,
2013-01-20 03:12:00,44.0,31.0,-100.00,SW,235,6.0,12.0,59,0.00,,,0.00,0.000000,,2013-01-20 09:12:00,
2013-01-20 03:33:00,42.0,31.0,-100.00,SW,232,3.0,9.0,65,0.00,,,0.00,0.000000,,2013-01-20 09:33:00,
2013-01-20 03:42:00,42.0,31.0,-100.00,SW,232,3.0,9.0,65,0.00,,,0.00,0.000000,,2013-01-20 09:42:00,
2013-01-20 03:53:00,42.0,31.0,-100.00,SW,232,3.0,9.0,65,0.00,,,0.00,0.000000,,2013-01-20 09:53:00,
2013-01-20 04:02:00,42.0,31.0,-100.00,SW,232,3.0,9.0,65,0.00,,,0.00,0.000000,,2013-01-20 10:02:00,
2013-01-20 04:12:00,42.0,31.0,-100.00,SW,232,3.0,9.0,65,0.00,,,0.00,0.000000,,2013-01-20 10:12:00,
2013-01-20 04:33:00,40.0,31.0,-100.00,WSW,239,4.0,7.0,71,0.00,,,0.00,0.000000,,2013-01-20 10:33:00,
2013-01-20 04:42:00,40.0,31.0,-100.00,WSW,239,4.0,7.0,71,0.00,,,0.00,0.000000,,2013-01-20 10:42:00,
2013-01-20 04:52:00,40.0,31.0,-100.00,WSW,239,4.0,7.0,71,0.00,,,0.00,0.000000,,2013-01-20 10:52:00,
2013-01-20 05:02:00,40.0,31.0,-100.00,WSW,239,4.0,7.0,71,0.00,,,0.00,0.000000,,2013-01-20 11:02:00,
2013-01-20 05:12:00,40.0,31.0,-100.00,WSW,239,4.0,7.0,71,0.00,,,0.00,0.000000,,2013-01-20 11:12:00,
2013-01-20 05:33:00,36.0,31.0,-100.00,WSW,238,3.0,5.0,81,0.00,,,0.00,0.000000,,2013-01-20 11:33:00,
2013-01-20 05:43:00,36.0,31.0,-100.00,WSW,238,3.0,5.0,81,0.00,,,0.00,0.000000,,2013-01-20 11:43:00,
2013-01-20 05:53:00,36.0,31.0,-100.00,WSW,238,3.0,5.0,81,0.00,,,0.00,0.000000,,2013-01-20 11:53:00,
2013-01-20 06:03:00,36.0,31.0,-100.00,WSW,238,3.0,5.0,81,0.00,,,0.00,0.000000,,2013-01-20 12:03:00,
2013-01-20 06:12:00,36.0,31.0,-100.00,WSW,238,3.0,5.0,81,0.00,,,0.00,0.000000,,2013-01-20 12:12:00,
2013-01-20 06:33:00,33.0,30.0,-100.00,NW,322,1.0,4.0,89,0.00,,,0.00,0.000000,,2013-01-20 12:33:00,
2013-01-20 06:43:00,33.0,30.0,-100.00,NW,322,1.0,4.0,89,0.00,,,0.00,0.000000,,2013-01-20 12:43:00,
2013-01-20 06:53:00,33.0,30.0,-100.00,NW,322,1.0,4.0,89,0.00,,,0.00,0.000000,,2013-01-20 12:53:00,
2013-01-20 07:03:00,33.0,30.0,-100.00,NW,322,1.0,4.0,89,0.00,,,0.00,0.000000,,2013-01-20 13:03:00,
2013-01-20 07:12:00,33.0,30.0,-100.00,NW,322,1.0,4.0,89,0.00,,,0.00,0.000000,,2013-01-20 13:12:00,
2013-01-20 07:33:00,30.0,28.0,-100.00,West,266,1.0,3.0,94,0.00,,,0.00,3.000000,,2013-01-20 13:33:00,
2013-01-20 07:43:00,30.0,28.0,-100.00,West,266,1.0,3.0,94,0.00,,,0.00,3.000000,,2013-01-20 13:43:00,
2013-01-20 07:53:00,30.0,28.0,-100.00,West,266,1.0,3.0,94,0.00,,,0.00,3.000000,,2013-01-20 13:53:00,
2013-01-20 08:02:00,30.0,28.0,-100.00,West,266,1.0,3.0,94,0.00,,,0.00,3.000000,,2013-01-20 14:02:00,
2013-01-20 08:12:00,30.0,28.0,-100.00,West,266,1.0,3.0,94,0.00,,,0.00,3.000000,,2013-01-20 14:12:00,
2013-01-20 08:33:00,41.0,32.0,-100.00,North,10,6.0,10.0,71,0.00,,,0.00,94.000000,,2013-01-20 14:33:00,
2013-01-20 08:43:00,41.0,32.0,-100.00,North,10,6.0,10.0,71,0.00,,,0.00,94.000000,,2013-01-20 14:43:00,
2013-01-20 08:53:00,41.0,32.0,-100.00,North,10,6.0,10.0,71,0.00,,,0.00,94.000000,,2013-01-20 14:53:00,
2013-01-20 09:03:00,41.0,32.0,-100.00,North,10,6.0,10.0,71,0.00,,,0.00,94.000000,,2013-01-20 15:03:00,
2013-01-20 09:12:00,41.0,32.0,-100.00,North,10,6.0,10.0,71,0.00,,,0.00,94.000000,,2013-01-20 15:12:00,
2013-01-20 09:43:00,44.0,28.0,-100.00,North,9,8.0,16.0,53,0.00,,,0.00,244.000000,,2013-01-20 15:43:00,
2013-01-20 09:53:00,44.0,28.0,-100.00,North,9,8.0,16.0,53,0.00,,,0.00,244.000000,,2013-01-20 15:53:00,
2013-01-20 10:03:00,44.0,28.0,-100.00,North,9,8.0,16.0,53,0.00,,,0.00,244.000000,,2013-01-20 16:03:00,
2013-01-20 10:12:00,44.0,28.0,-100.00,North,9,8.0,16.0,53,0.00,,,0.00,244.000000,,2013-01-20 16:12:00,
2013-01-20 10:33:00,46.0,27.0,-100.00,North,359,7.0,15.0,48,0.00,,,0.00,380.000000,,2013-01-20 16:33:00,
2013-01-20 10:43:00,46.0,27.0,-100.00,North,359,7.0,15.0,48,0.00,,,0.00,380.000000,,2013-01-20 16:43:00,
2013-01-20 10:53:00,46.0,27.0,-100.00,North,359,7.0,15.0,48,0.00,,,0.00,380.000000,,2013-01-20 16:53:00,
2013-01-20 11:03:00,46.0,27.0,-100.00,North,359,7.0,15.0,48,0.00,,,0.00,380.000000,,2013-01-20 17:03:00,
2013-01-20 11:12:00,46.0,27.0,-100.00,North,359,7.0,15.0,48,0.00,,,0.00,380.000000,,2013-01-20 17:12:00,
2013-01-20 11:33:00,47.0,26.0,-100.00,NNW,335,7.0,14.0,43,0.00,,,0.00,471.000000,,2013-01-20 17:33:00,
2013-01-20 11:43:00,47.0,26.0,-100.00,NNW,335,7.0,14.0,43,0.00,,,0.00,471.000000,,2013-01-20 17:43:00,
2013-01-20 11:53:00,47.0,26.0,-100.00,NNW,335,7.0,14.0,43,0.00,,,0.00,471.000000,,2013-01-20 17:53:00,
2013-01-20 12:03:00,47.0,26.0,-100.00,NNW,335,7.0,14.0,43,0.00,,,0.00,471.000000,,2013-01-20 18:03:00,
2013-01-20 12:13:00,47.0,26.0,-100.00,NNW,335,7.0,14.0,43,0.00,,,0.00,471.000000,,2013-01-20 18:13:00,
2013-01-20 12:43:00,49.0,25.0,-100.00,NNE,28,6.0,14.0,38,0.00,,,0.00,514.000000,,2013-01-20 18:43:00,
2013-01-20 12:53:00,49.0,25.0,-100.00,NNE,28,6.0,14.0,38,0.00,,,0.00,514.000000,,2013-01-20 18:53:00,
2013-01-20 13:02:00,49.0,25.0,-100.00,NNE,28,6.0,14.0,38,0.00,,,0.00,514.000000,,2013-01-20 19:02:00,
2013-01-20 13:12:00,49.0,25.0,-100.00,NNE,28,6.0,14.0,38,0.00,,,0.00,514.000000,,2013-01-20 19:12:00,
2013-01-20 13:33:00,50.0,24.0,-100.00,North,359,5.0,16.0,36,0.00,,,0.00,498.000000,,2013-01-20 19:33:00,
2013-01-20 13:43:00,50.0,24.0,-100.00,North,359,5.0,16.0,36,0.00,,,0.00,498.000000,,2013-01-20 19:43:00,
2013-01-20 13:53:00,50.0,24.0,-100.00,North,359,5.0,16.0,36,0.00,,,0.00,498.000000,,2013-01-20 19:53:00,
2013-01-20 14:03:00,50.0,24.0,-100.00,North,359,5.0,16.0,36,0.00,,,0.00,498.000000,,2013-01-20 20:03:00,
2013-01-20 14:12:00,50.0,24.0,-100.00,North,359,5.0,16.0,36,0.00,,,0.00,498.000000,,2013-01-20 20:12:00,
2013-01-20 14:42:00,49.0,21.0,-100.00,NNE,16,6.0,12.0,33,0.00,,,0.00,432.000000,,2013-01-20 20:42:00,
2013-01-20 14:53:00,49.0,21.0,-100.00,NNE,16,6.0,12.0,33,0.00,,,0.00,432.000000,,2013-01-20 20:53:00,
2013-01-20 15:03:00,49.0,21.0,-100.00,NNE,16,6.0,12.0,33,0.00,,,0.00,432.000000,,2013-01-20 21:03:00,
2013-01-20 15:13:00,49.0,21.0,-100.00,NNE,16,6.0,12.0,33,0.00,,,0.00,432.000000,,2013-01-20 21:13:00,
2013-01-20 15:33:00,49.0,19.0,-100.00,NNE,20,4.0,13.0,30,0.00,,,0.00,322.000000,,2013-01-20 21:33:00,
2013-01-20 15:43:00,49.0,19.0,-100.00,NNE,20,4.0,13.0,30,0.00,,,0.00,322.000000,,2013-01-20 21:43:00,
2013-01-20 15:53:00,49.0,19.0,-100.00,NNE,20,4.0,13.0,30,0.00,,,0.00,322.000000,,2013-01-20 21:53:00,
2013-01-20 16:03:00,49.0,19.0,-100.00,NNE,20,4.0,13.0,30,0.00,,,0.00,322.000000,,2013-01-20 22:03:00,
2013-01-20 16:12:00,49.0,19.0,-100.00,NNE,20,4.0,13.0,30,0.00,,,0.00,322.000000,,2013-01-20 22:12:00,
2013-01-20 16:33:00,48.0,18.0,-100.00,WNW,289,4.0,7.0,30,0.00,,,0.00,180.000000,,2013-01-20 22:33:00,
2013-01-20 16:43:00,48.0,18.0,-100.00,WNW,289,4.0,7.0,30,0.00,,,0.00,180.000000,,2013-01-20 22:43:00,
2013-01-20 16:53:00,48.0,18.0,-100.00,WNW,289,4.0,7.0,30,0.00,,,0.00,180.000000,,2013-01-20 22:53:00,
2013-01-20 17:03:00,48.0,18.0,-100.00,WNW,289,4.0,7.0,30,0.00,,,0.00,180.000000,,2013-01-20 23:03:00,
2013-01-20 17:13:00,48.0,18.0,-100.00,WNW,289,4.0,7.0,30,0.00,,,0.00,180.000000,,2013-01-20 23:13:00,
2013-01-20 17:33:00,42.0,21.0,-100.00,North,353,5.0,10.0,42,0.00,,,-99.99,35.000000,,2013-01-20 23:33:00,
2013-01-20 17:43:00,42.0,21.0,-100.00,North,353,5.0,10.0,42,0.00,,,-99.99,35.000000,,2013-01-20 23:43:00,
2013-01-20 17:53:00,42.0,21.0,-100.00,North,353,5.0,10.0,42,0.00,,,-99.99,35.000000,,2013-01-20 23:53:00,
2013-01-20 18:03:00,42.0,21.0,-100.00,North,353,5.0,10.0,42,0.00,,,-99.99,35.000000,,2013-01-21 00:03:00,
2013-01-20 18:13:00,42.0,21.0,-100.00,North,353,5.0,10.0,42,0.00,,,-99.99,35.000000,,2013-01-21 00:13:00,
2013-01-20 18:33:00,38.0,15.0,-100.00,North,9,5.0,10.0,38,0.00,,,0.00,0.000000,,2013-01-21 00:33:00,
2013-01-20 18:43:00,38.0,15.0,-100.00,North,9,5.0,10.0,38,0.00,,,0.00,0.000000,,2013-01-21 00:43:00,
2013-01-20 18:54:00,38.0,15.0,-100.00,North,9,5.0,10.0,38,0.00,,,0.00,0.000000,,2013-01-21 00:54:00,
2013-01-20 19:03:00,38.0,15.0,-100.00,North,9,5.0,10.0,38,0.00,,,0.00,0.000000,,2013-01-21 01:03:00,
2013-01-20 19:13:00,38.0,15.0,-100.00,North,9,5.0,10.0,38,0.00,,,0.00,0.000000,,2013-01-21 01:13:00,
2013-01-20 19:33:00,35.0,16.0,-100.00,NNE,23,5.0,9.0,45,0.00,,,0.00,0.000000,,2013-01-21 01:33:00,
2013-01-20 19:43:00,35.0,16.0,-100.00,NNE,23,5.0,9.0,45,0.00,,,0.00,0.000000,,2013-01-21 01:43:00,
2013-01-20 19:53:00,35.0,16.0,-100.00,NNE,23,5.0,9.0,45,0.00,,,0.00,0.000000,,2013-01-21 01:53:00,
2013-01-20 20:03:00,35.0,16.0,-100.00,NNE,23,5.0,9.0,45,0.00,,,0.00,0.000000,,2013-01-21 02:03:00,
2013-01-20 20:12:00,35.0,16.0,-100.00,NNE,23,5.0,9.0,45,0.00,,,0.00,0.000000,,2013-01-21 02:12:00,
2013-01-20 20:33:00,33.0,18.0,-100.00,NNE,12,4.0,10.0,54,0.00,,,0.00,0.000000,,2013-01-21 02:33:00,
2013-01-20 20:43:00,33.0,18.0,-100.00,NNE,12,4.0,10.0,54,0.00,,,0.00,0.000000,,2013-01-21 02:43:00,
2013-01-20 20:53:00,33.0,18.0,-100.00,NNE,12,4.0,10.0,54,0.00,,,0.00,0.000000,,2013-01-21 02:53:00,
2013-01-20 21:03:00,33.0,18.0,-100.00,NNE,12,4.0,10.0,54,0.00,,,0.00,0.000000,,2013-01-21 03:03:00,
2013-01-20 21:13:00,33.0,18.0,-100.00,NNE,12,4.0,10.0,54,0.00,,,0.00,0.000000,,2013-01-21 03:13:00,
2013-01-20 21:33:00,31.0,18.0,-100.00,NNE,18,4.0,7.0,57,0.00,,,0.00,0.000000,,2013-01-21 03:33:00,
2013-01-20 21:43:00,31.0,18.0,-100.00,NNE,18,4.0,7.0,57,0.00,,,0.00,0.000000,,2013-01-21 03:43:00,
2013-01-20 21:53:00,31.0,18.0,-100.00,NNE,18,4.0,7.0,57,0.00,,,0.00,0.000000,,2013-01-21 03:53:00,
2013-01-20 22:03:00,31.0,18.0,-100.00,NNE,18,4.0,7.0,57,0.00,,,0.00,0.000000,,2013-01-21 04:03:00,
2013-01-20 22:12:00,31.0,18.0,-100.00,NNE,18,4.0,7.0,57,0.00,,,0.00,0.000000,,2013-01-21 04:12:00,
2013-01-20 22:33:00,28.0,17.0,-100.00,South,169,0.0,5.0,63,0.00,,,0.00,0.000000,,2013-01-21 04:33:00,
2013-01-20 22:43:00,28.0,17.0,-100.00,South,169,0.0,5.0,63,0.00,,,0.00,0.000000,,2013-01-21 04:43:00,
2013-01-20 22:53:00,28.0,17.0,-100.00,South,169,0.0,5.0,63,0.00,,,0.00,0.000000,,2013-01-21 04:53:00,
2013-01-20 23:03:00,28.0,17.0,-100.00,South,169,0.0,5.0,63,0.00,,,0.00,0.000000,,2013-01-21 05:03:00,
2013-01-20 23:12:00,28.0,17.0,-100.00,South,169,0.0,5.0,63,0.00,,,0.00,0.000000,,2013-01-21 05:12:00,
2013-01-20 23:43:00,26.0,19.0,-100.00,North,351,2.0,3.0,73,0.00,,,0.00,0.000000,,2013-01-21 05:43:00,
2013-01-20 23:53:00,26.0,19.0,-100.00,North,351,2.0,3.0,73,0.00,,,0.00,0.000000,,2013-01-21 05:53:00,